Погода в Вивсе

Украина / Хмельницкая область     49°09′17″N   26°18′51″E
темп.,
°C
ветер,
м/с
пор.,
м/с
влажн.,
%
обл.,
%
осадки,
мм/ч
давл.,
гПа
погр.,
м
13 апреля, вт
вт1300:00+10юв33515 0.0 101928
03:00+8юв22555 0.0 101815
06:00+7юв22585 0.0 101814
09:00+11ююв23545 0.0 1018216
12:00+15ююв3341100 0.0 10171032
15:00+17ююз113799 0.0 10151811
18:00+16ссз1143100 0.0 1014889
21:00+10ссз61181100 0.1 1016498
14 апреля, ср
ср1400:00+8ссз6786100 0.0 1015368
03:00+7с5787100 0.0 1014288
06:00+6с3593100 0.0 1013175
09:00+9вюв2384100 0.1 1013375
12:00+11ю4573100 0.2 10121004
15:00+9з5478100 0.3 1013574
18:00+8зсз4477100 0.0 1013552
21:00+5сз5587100 0.0 1014387
15 апреля, чт
чт1500:00+3зсз5695100 1.4 1014323
03:00+3сз5793100 1.6 1014355
06:00+2сз5895100 0.0 1014373
09:00+2сз61096100 2.1 1014371
12:00+2сз61096100 3.3 1014374
15:00+2зсз61196100 5.3 1015430
18:00+1зсз71296100 0.6 1015440
21:00
16 апреля, пт
пт1600:00+1зсз71397100 1.9 1015448
03:00+1зсз71397100 3.6 1014465
06:00+1зсз71398100 2.5 1013443
09:00+1зсз71398100 5.8 1013401
12:00+1зсз61297100 1.3 1014418
15:00+2зсз71298100 2.4 1014439
18:00+2зсз91698100 1.6 1014403
21:00+4сз5898100 0.8 1015293
17 апреля, сб
сб1700:00+2сз5998100 0.0 1016347
03:00+3з359996 0.0 1016139
06:00+3зсз3799100 0.1 1017226
09:00+4зсз3499100 0.8 1018157
12:00+9ссв237498 0.0 1018961
15:00+9ссв2469100 0.2 1018665
18:00+6всв5885100 0.3 1019419
21:00+5всв378854 0.3 1020246